User: anonymous   Login
Location: Newark
(47.3150°N, 5.1150°E)
Time: 05:48:05
(UTC+00:00)
Language:

CUBEBUG 2 - Orbit

View from above orbital plane
View from above orbital plane
View from above satellite
View from above satellite

Ground track
Ground track

The orbit data is extracted from the following two-line orbital elements,

1 39440U 13066AA  19349.88827267  .00000132  00000-0  25451-4 0  9997
2 39440  97.6141 337.8006 0079220 218.8470 140.7031 14.75930540326552
Epoch (UTC): 15 December 2019 21:19:06
Eccentricity: 0.0079220
inclination: 97.6141°
perigee height: 586 km
apogee height: 698 km
right ascension of ascending node: 337.8006°
argument of perigee: 218.8470°
revolutions per day: 14.75930540
mean anomaly at epoch: 140.7031°
orbit number at epoch: 32655

The dashed part of the orbit path shows where the satellite is in the earth's shadow,  

DLR